Bookmark and Share
Track history (hours):
 

M/T Arcadia

Last reported at 2014-Apr-17 14:04 UTC. Time now 2014-Apr-18 05:30 UTC.
Position N 37°38' E 023°25'.

Length 76 m; draft 4.6 m.

Type: Ship. MMSI: 240560000.

NotesDate/timePositionNaut miles runAvg speedWind from/ knotsBaromVisibWave heightAir tempDewpointWater temp
2014-Apr-17 14:04N 37°38' E 023°25'4 8.4
2014-Apr-17 13:32N 37°40' E 023°20'10 8.4
2014-Apr-17 12:22N 37°48' E 023°13'9 0.4
2014-Apr-16 10:19N 37°55' E 023°04'16 5.4
2014-Apr-16 07:23N 37°52' E 023°24'5 6.0
2014-Apr-16 06:33N 37°53' E 023°31'5 4.9
2014-Apr-16 05:33N 37°56' E 023°35'1 0.9
2014-Apr-16 04:33N 37°57' E 023°35'0 0.0
2014-Apr-16 03:33N 37°57' E 023°35'0 0.0
2014-Apr-16 02:33N 37°57' E 023°35'0 0.0
2014-Apr-16 01:33N 37°57' E 023°35'0 0.0
2014-Apr-16 00:33N 37°57' E 023°35'0 0.0
2014-Apr-15 23:33N 37°57' E 023°35'0 0.0
2014-Apr-15 22:33N 37°57' E 023°35'0 0.0
2014-Apr-15 21:33N 37°57' E 023°35'0 0.0
2014-Apr-15 20:33N 37°57' E 023°35'0 0.0
2014-Apr-15 19:33N 37°57' E 023°35'0 0.0
2014-Apr-15 18:33N 37°57' E 023°35'0 0.0
2014-Apr-15 17:33N 37°57' E 023°35'0 0.0
2014-Apr-15 16:33N 37°57' E 023°35'0 0.0
2014-Apr-15 15:33N 37°57' E 023°35'0 0.0
2014-Apr-15 14:33N 37°57' E 023°35'0 0.0
2014-Apr-15 12:34N 37°57' E 023°35'0 0.0
2014-Apr-15 11:34N 37°57' E 023°35'0 0.0
2014-Apr-15 10:34N 37°57' E 023°35'0 0.0
2014-Apr-15 09:34N 37°57' E 023°35'0 0.0
2014-Apr-15 08:34N 37°57' E 023°35'0 0.0
2014-Apr-15 07:33N 37°57' E 023°35'0 0.0
2014-Apr-15 06:30N 37°57' E 023°35'0 0.0
2014-Apr-15 05:32N 37°57' E 023°35'2 1.2
2014-Apr-15 03:33N 37°55' E 023°35'1 1.3
2014-Apr-15 02:34N 37°54' E 023°35'0 0.1
2014-Apr-15 01:34N 37°54' E 023°35'5 5.2
2014-Apr-15 00:33N 37°50' E 023°31'6 5.6
2014-Apr-14 23:33N 37°51' E 023°24'6 5.6
2014-Apr-14 22:34N 37°52' E 023°17'8 0.2
2014-Apr-13 12:33N 37°51' E 023°27'5 5.5
2014-Apr-13 11:33N 37°52' E 023°33'6 5.3
2014-Apr-13 10:28N 37°57' E 023°35'0 0.0
2014-Apr-13 09:28N 37°57' E 023°35'0 0.0
2014-Apr-13 08:10N 37°57' E 023°35'0 0.0
2014-Apr-13 07:16N 37°57' E 023°35'0 0.0
2014-Apr-13 06:28N 37°57' E 023°35'0 0.0
2014-Apr-13 05:28N 37°57' E 023°35'0 0.0
2014-Apr-13 04:28N 37°57' E 023°35'0 0.0
2014-Apr-13 03:28N 37°57' E 023°35'0 0.0
2014-Apr-13 02:28N 37°57' E 023°35'0 0.0
2014-Apr-13 01:28N 37°57' E 023°35'0 0.0
2014-Apr-13 00:22N 37°57' E 023°35'0 0.0
2014-Apr-12 23:22N 37°57' E 023°35'0 0.0
2014-Apr-12 22:28N 37°57' E 023°35'0 0.0
2014-Apr-12 21:16N 37°57' E 023°35'0 0.0
2014-Apr-12 20:28N 37°57' E 023°35'0 0.0
2014-Apr-12 19:16N 37°57' E 023°35'0 0.0
2014-Apr-12 18:28N 37°57' E 023°35'3 3.1
2014-Apr-12 17:33N 37°55' E 023°34'0 0.3
2014-Apr-12 16:33N 37°55' E 023°34'0 0.0
2014-Apr-12 15:33N 37°55' E 023°34'0 0.0
2014-Apr-12 14:33N 37°55' E 023°34'0 0.0
2014-Apr-12 13:27N 37°55' E 023°34'0 0.0
2014-Apr-12 12:33N 37°55' E 023°34'0 0.0
2014-Apr-12 11:33N 37°55' E 023°34'0 0.0
2014-Apr-12 10:33N 37°55' E 023°34'0 0.3
2014-Apr-12 09:33N 37°55' E 023°33'6 5.7
2014-Apr-12 08:32N 37°52' E 023°27'9 6.1
2014-Apr-12 07:07N 37°53' E 023°16'4 6.3
2014-Apr-12 06:32N 37°54' E 023°12'10 0.6
2014-Apr-11 14:06N 37°51' E 023°24'4 7.7
2014-Apr-11 13:33N 37°50' E 023°29'6 5.7
2014-Apr-11 12:33N 37°55' E 023°34'  

Dump ship's entire track history

sailing weather and tide predictions

M/T Arcadia — SY7849 — position and weather